When you browse on this site, cookies collect data to enhance your experience and personalize the content and advertising you see.
Visit our Privacy Policy to learn more. By continuing to use the site, you agree to this use of cookies and data.
  • în România
  • Lista ţărilor
  • Pe 7 zile
  • Temperatura apei
  • Hartă satelitară
  • Meteo pe hartă
  • Widget-uri
  • user-avatar
    Intrare

    Meteo pe oră la Lubango

    Astăzi, 27 Iunie, Joi

    Timp Temperatura Precipitaţii Vânt Presiune Umiditate
    00:00 +11°C° 0 mm 1 m/s 609 mmHg 50%
    01:00 +11°C° 0 mm 1 m/s 609 mmHg 48%
    02:00 +11°C° 0 mm 1 m/s 608 mmHg 46%
    03:00 +11°C° 0 mm 1 m/s 608 mmHg 43%
    04:00 +11°C° 0 mm 1 m/s 608 mmHg 41%
    05:00 +11°C° 0 mm 1 m/s 608 mmHg 40%
    06:00 +12°C° 0 mm 1 m/s 608 mmHg 40%
    07:00 +12°C° 0 mm 1 m/s 609 mmHg 39%
    08:00 +15°C° 0 mm 1 m/s 610 mmHg 34%
    09:00 +18°C° 0 mm 2 m/s 611 mmHg 29%
    10:00 +23°C° 0 mm 2 m/s 613 mmHg 23%
    11:00 +24°C° 0 mm 2 m/s 612 mmHg 22%
    12:00 +25°C° 0 mm 2 m/s 612 mmHg 20%
    13:00 +26°C° 0 mm 2 m/s 612 mmHg 19%
    14:00 +25°C° 0 mm 2 m/s 612 mmHg 20%
    15:00 +24°C° 0 mm 3 m/s 611 mmHg 22%
    16:00 +24°C° 0 mm 3 m/s 611 mmHg 23%
    17:00 +19°C° 0 mm 2 m/s 610 mmHg 34%
    18:00 +16°C° 0 mm 1 m/s 609 mmHg 44%
    19:00 +12°C° 0 mm 1 m/s 608 mmHg 55%
    20:00 +12°C° 0 mm 1 m/s 608 mmHg 53%
    21:00 +12°C° 0 mm 1 m/s 608 mmHg 52%
    22:00 +12°C° 0 mm 1 m/s 609 mmHg 50%
    23:00 +12°C° 0 mm 1 m/s 609 mmHg 48%

    Mâine, 28 Iunie, Vineri

    Timp Temperatura Precipitaţii Vânt Presiune Umiditate
    00:00 +12°C° 0 mm 1 m/s 609 mmHg 45%
    01:00 +12°C° 0 mm 1 m/s 608 mmHg 43%
    02:00 +12°C° 0 mm 1 m/s 608 mmHg 43%
    03:00 +12°C° 0 mm 1 m/s 608 mmHg 42%
    04:00 +12°C° 0 mm 1 m/s 608 mmHg 42%
    05:00 +12°C° 0 mm 1 m/s 608 mmHg 42%
    06:00 +12°C° 0 mm 1 m/s 609 mmHg 41%
    07:00 +12°C° 0 mm 1 m/s 609 mmHg 41%
    08:00 +16°C° 0 mm 1 m/s 610 mmHg 35%
    09:00 +20°C° 0 mm 1 m/s 611 mmHg 30%
    10:00 +23°C° 0 mm 1 m/s 613 mmHg 24%
    11:00 +24°C° 0 mm 2 m/s 612 mmHg 23%
    12:00 +25°C° 0 mm 2 m/s 612 mmHg 21%
    13:00 +26°C° 0 mm 2 m/s 612 mmHg 19%
    14:00 +26°C° 0 mm 2 m/s 611 mmHg 20%
    15:00 +25°C° 0 mm 2 m/s 611 mmHg 21%
    16:00 +25°C° 0 mm 2 m/s 610 mmHg 22%
    17:00 +21°C° 0 mm 2 m/s 609 mmHg 31%
    18:00 +18°C° 0 mm 1 m/s 608 mmHg 39%
    19:00 +14°C° 0 mm 1 m/s 608 mmHg 48%
    20:00 +14°C° 0 mm 1 m/s 608 mmHg 47%
    21:00 +14°C° 0 mm 1 m/s 608 mmHg 45%
    22:00 +14°C° 0 mm 1 m/s 609 mmHg 44%
    23:00 +14°C° 0 mm 1 m/s 609 mmHg 43%

    Poimâine, 29 Iunie, Sâmbătă

    Timp Temperatura Precipitaţii Vânt Presiune Umiditate
    00:00 +14°C° 0 mm 1 m/s 609 mmHg 41%
    01:00 +14°C° 0 mm 1 m/s 609 mmHg 39%
    02:00 +13°C° 0 mm 1 m/s 609 mmHg 39%
    03:00 +13°C° 0 mm 1 m/s 608 mmHg 39%
    04:00 +13°C° 0 mm 1 m/s 608 mmHg 39%
    05:00 +13°C° 0 mm 1 m/s 608 mmHg 39%
    06:00 +13°C° 0 mm 1 m/s 609 mmHg 40%
    07:00 +13°C° 0 mm 1 m/s 609 mmHg 40%
    08:00 +16°C° 0 mm 1 m/s 610 mmHg 34%
    09:00 +21°C° 0 mm 1 m/s 612 mmHg 28%
    10:00 +24°C° 0 mm 1 m/s 613 mmHg 22%
    11:00 +25°C° 0 mm 2 m/s 613 mmHg 21%
    12:00 +26°C° 0 mm 2 m/s 612 mmHg 20%
    13:00 +26°C° 0 mm 2 m/s 612 mmHg 19%
    14:00 +26°C° 0 mm 2 m/s 612 mmHg 20%
    15:00 +26°C° 0 mm 2 m/s 611 mmHg 21%
    16:00 +25°C° 0 mm 2 m/s 611 mmHg 22%
    17:00 +21°C° 0 mm 2 m/s 610 mmHg 30%
    18:00 +19°C° 0 mm 1 m/s 609 mmHg 38%
    19:00 +15°C° 0 mm 1 m/s 608 mmHg 46%
    20:00 +14°C° 0 mm 1 m/s 609 mmHg 46%
    21:00 +14°C° 0 mm 1 m/s 609 mmHg 46%
    22:00 +14°C° 0 mm 1 m/s 610 mmHg 46%
    23:00 +14°C° 0 mm 1 m/s 610 mmHg 44%

    30 Iunie, Duminică

    Timp Temperatura Precipitaţii Vânt Presiune Umiditate
    00:00 +14°C° 0 mm 1 m/s 610 mmHg 42%
    01:00 +14°C° 0 mm 1 m/s 610 mmHg 41%
    02:00 +14°C° 0 mm 1 m/s 609 mmHg 40%
    03:00 +13°C° 0 mm 1 m/s 609 mmHg 40%
    04:00 +13°C° 0 mm 1 m/s 609 mmHg 39%
    05:00 +13°C° 0 mm 1 m/s 609 mmHg 39%
    06:00 +13°C° 0 mm 1 m/s 610 mmHg 38%
    07:00 +14°C° 0 mm 1 m/s 610 mmHg 37%
    08:00 +18°C° 0 mm 1 m/s 611 mmHg 32%
    09:00 +21°C° 0 mm 1 m/s 613 mmHg 27%
    10:00 +24°C° 0 mm 1 m/s 614 mmHg 22%
    11:00 +25°C° 0 mm 2 m/s 614 mmHg 20%
    12:00 +26°C° 0 mm 2 m/s 613 mmHg 19%
    13:00 +27°C° 0 mm 2 m/s 613 mmHg 18%
    14:00 +27°C° 0 mm 2 m/s 613 mmHg 20%
    15:00 +26°C° 0 mm 2 m/s 612 mmHg 21%
    16:00 +26°C° 0 mm 2 m/s 611 mmHg 22%
    17:00 +21°C° 0 mm 2 m/s 611 mmHg 29%
    18:00 +18°C° 0 mm 2 m/s 610 mmHg 36%
    19:00 +15°C° 0 mm 2 m/s 609 mmHg 42%
    20:00 +15°C° 0 mm 2 m/s 609 mmHg 41%
    21:00 +15°C° 0 mm 2 m/s 609 mmHg 40%
    22:00 +15°C° 0 mm 2 m/s 609 mmHg 39%
    23:00 +15°C° 0 mm 2 m/s 609 mmHg 38%

    1 Iulie, Luni

    Timp Temperatura Precipitaţii Vânt Presiune Umiditate
    00:00 +15°C° 0 mm 2 m/s 609 mmHg 37%
    01:00 +15°C° 0 mm 2 m/s 609 mmHg 35%
    02:00 +14°C° 0 mm 2 m/s 609 mmHg 35%
    03:00 +14°C° 0 mm 2 m/s 608 mmHg 36%
    04:00 +14°C° 0 mm 2 m/s 608 mmHg 36%
    05:00 +13°C° 0 mm 2 m/s 608 mmHg 36%
    06:00 +13°C° 0 mm 2 m/s 609 mmHg 37%
    07:00 +12°C° 0 mm 3 m/s 609 mmHg 38%
    08:00 +16°C° 0 mm 3 m/s 610 mmHg 32%
    09:00 +19°C° 0 mm 3 m/s 611 mmHg 26%
    10:00 +22°C° 0 mm 4 m/s 613 mmHg 21%
    11:00 +25°C° 0 mm 3 m/s 612 mmHg 19%
    12:00 +26°C° 0 mm 3 m/s 612 mmHg 17%
    13:00 +27°C° 0 mm 2 m/s 612 mmHg 15%
    14:00 +27°C° 0 mm 2 m/s 612 mmHg 15%
    15:00 +27°C° 0 mm 2 m/s 611 mmHg 14%
    16:00 +27°C° 0 mm 2 m/s 611 mmHg 13%
    17:00 +23°C° 0 mm 2 m/s 610 mmHg 17%
    18:00 +19°C° 0 mm 2 m/s 609 mmHg 21%
    19:00 +16°C° 0 mm 1 m/s 608 mmHg 24%
    20:00 +16°C° 0 mm 2 m/s 608 mmHg 24%
    21:00 +15°C° 0 mm 2 m/s 608 mmHg 25%
    22:00 +15°C° 0 mm 2 m/s 609 mmHg 25%
    23:00 +14°C° 0 mm 2 m/s 608 mmHg 25%

    2 Iulie, Marţi

    Timp Temperatura Precipitaţii Vânt Presiune Umiditate
    00:00 +14°C° 0 mm 2 m/s 608 mmHg 25%
    01:00 +14°C° 0 mm 2 m/s 608 mmHg 25%
    02:00 +14°C° 0 mm 2 m/s 608 mmHg 24%
    03:00 +13°C° 0 mm 3 m/s 608 mmHg 24%
    04:00 +12°C° 0 mm 3 m/s 608 mmHg 24%
    05:00 +12°C° 0 mm 3 m/s 608 mmHg 24%
    06:00 +12°C° 0 mm 3 m/s 608 mmHg 25%
    07:00 +12°C° 0 mm 3 m/s 608 mmHg 25%
    08:00 +15°C° 0 mm 4 m/s 609 mmHg 22%
    09:00 +19°C° 0 mm 4 m/s 611 mmHg 19%
    10:00 +22°C° 0 mm 5 m/s 612 mmHg 16%
    11:00 +23°C° 0 mm 4 m/s 611 mmHg 15%
    12:00 +26°C° 0 mm 4 m/s 611 mmHg 14%
    13:00 +27°C° 0 mm 3 m/s 611 mmHg 13%
    14:00 +27°C° 0 mm 3 m/s 611 mmHg 13%
    15:00 +27°C° 0 mm 2 m/s 610 mmHg 13%
    16:00 +27°C° 0 mm 2 m/s 610 mmHg 13%
    17:00 +24°C° 0 mm 2 m/s 609 mmHg 15%
    18:00 +20°C° 0 mm 2 m/s 608 mmHg 18%
    19:00 +16°C° 0 mm 2 m/s 608 mmHg 21%
    20:00 +16°C° 0 mm 2 m/s 608 mmHg 21%
    21:00 +16°C° 0 mm 2 m/s 608 mmHg 22%
    22:00 +15°C° 0 mm 2 m/s 609 mmHg 22%
    23:00 +14°C° 0 mm 2 m/s 608 mmHg 23%
    Arată mai mult